Regional Weather Roundup
Issued by NWS Charleston, SC

Current Version | Previous Version | Graphics & Text | Print | Product List | Glossary On
Versions: 1 2 3 4 5 6 7 8 9 10 11 12 13 14 15 16 17 18 19 20 21 22 23 24 25 26 27 28 29 30 31 32 33 34 35 36 37 38 39 40 41 42 43 44 45 46 47 48 49 50
000
ASUS42 KCHS 281027
RWRCHS

REGIONAL WEATHER ROUNDUP
NATIONAL WEATHER SERVICE CHARLESTON SC
600 AM EDT FRI APR 28 2017

NOTE: "FAIR" INDICATES FEW OR NO CLOUDS BELOW 12,000 FEET WITH NO
SIGNIFICANT WEATHER AND/OR OBSTRUCTIONS TO VISIBILITY.

NOT ALL STATIONS ARE QUALITY CONTROLLED. USE DATA WITH CAUTION...
ESPECIALLY DEWPOINT OBSERVATIONS.

SCZ027-030-031-034>040-042>050-281100-
...SOUTHEAST SOUTH CAROLINA...

CITY           SKY/WX    TMP DP  RH WIND       PRES   REMARKS
N CHARLESTON   PTCLDY    73  70  90 SW7       30.00R
WATERFRONT PRK   N/A     75  74  97 SW8G15    29.98R
JOHNS ISLAND   CLOUDY    75  73  94 SW7       30.02R FOG
PINOPOLIS        N/A     73  72  94 VRB2      29.91R
MONCKS CORNER  FAIR      70  68  94 CALM      30.01R FOG
SUMMERVILLE    FAIR      72  70  94 CALM      30.01R FOG
BEAUFORT MCAS  PTCLDY    73  73 100 CALM      30.00R FOG
BEAUFORT ARPT  CLOUDY    72  72 100 S6        30.00R FOG
HILTON HEAD IS NOT AVBL
WALTERBORO     FOG       70  68  94 CALM      30.01R VSB 3/4
ALLENDALE      FAIR      68  66  94 CALM      29.99R

...SOUTHERN MIDLANDS AND PEE DEE...

CITY           SKY/WX    TMP DP  RH WIND       PRES   REMARKS
GEORGETOWN     CLOUDY    73  72  94 S6        30.03R
KINGSTREE      FAIR      70  68  94 SE3       30.00R
ORANGEBURG     CLOUDY    68  66  93 CALM      29.99R
BARNWELL       FAIR      70  68  94 CALM      29.99R
AIKEN          CLOUDY    66  64  94 S5        30.02R
MANNING        FAIR      70  70 100 MISG      30.00R FOG
COLUMBIA       MOCLDY    69  63  81 CALM      29.98R
SUMTER         PTCLDY    69  66  90 CALM      29.97R
FLORENCE       PTCLDY    71  71 100 S7        30.00R
MYRTLE BEACH   CLOUDY    73  72  94 S10       30.01R
N MYRTLE BEACH MOCLDY    73  72  96 S10       30.02R

$$

GAZ063-065-086>088-099>101-113>116-118-119-134>141-150-281100-
...SOUTHEAST GEORGIA...

CITY           SKY/WX    TMP DP  RH WIND       PRES   REMARKS
SAVANNAH ARPT  PTCLDY    70  67  90 E3        29.99R
HUNTER AAF     CLEAR     70  70 100 CALM      29.98R FOG
FORT STEWART   CLEAR     64  63  94 CALM      29.98R FOG
STATESBORO       N/A     64  64 100 CALM      30.00R FOG
SYLVANIA       SUNNY    N/A N/A N/A CALM      30.01R
CLAXTON        FAIR     N/A N/A N/A CALM      30.00R

...CSRA...CENTRAL AND FAR SOUTHEAST GEORGIA...

CITY           SKY/WX    TMP DP  RH WIND       PRES   REMARKS
THOMSON        CLOUDY    67  66  97 SW5       30.03R FOG
AUGUSTA-BUSH   CLOUDY    66  65  96 CALM      29.97R FOG
AUGUSTA-DANIEL CLOUDY    71  64  78 CALM      29.98R
SWAINSBORO     CLOUDY    68  68 100 CALM      30.01R
VIDALIA        CLEAR     66  64  94 CALM      30.00R
EASTMAN        CLOUDY    69  69 100 CALM      30.02R FOG
HAZLEHURST     PTSUNNY   69  69 100 S5        29.98R
ALMA           CLOUDY    69  67  93 S5        29.98R
WAYCROSS       CLEAR     70  70 100 CALM      29.99R FOG
JESUP          FAIR      64  63  94 CALM      29.99R FOG
BAXLEY         FAIR      68  68 100 CALM      29.99R
BRUNSWICK      FOG       68  68 100 CALM      30.00R VSB 1/4
SAINT SIMONS   CLEAR     71  67  87 CALM      29.98R FOG

$$

SCZ027-028-034-036>038-045-046-048>050-GAZ119-141-281100-
...LAKE AND SUPPLEMENTAL COASTAL OBSERVATIONS...

STATION/POSITION TIME  TEMP    WIND        PRES    WAVE   SWELL
                       AIR SEA DIR/SP/G            HT/PER HT/PER/DIR
                 (UTC) (F)     (DEG/KT/KT) (MB)    (FT/S) (FT/S/D)
WINYAH BAY       0930   74     190/  8     1016.0R
LAKE MURRAY      0950   71     220/  5/  7 1014.2R
ACE BASIN NERRS  0945   73        CALM     1016.0R
FORT PULASKI     1000   72 75  170/  4/  5 1015.8
SAPELO ISLAND    0945   70     140/  4     1015.0S

$$

ANZ835-935-AMZ111-154-330-350-352-354-370-450-454-472-281100-
...C-MAN AND BUOY OBSERVATIONS...

STATION/POSITION TIME  TEMP    WIND        PRES    WAVE   SWELL
                       AIR SEA DIR/SP/G            HT/PER HT/PER/DIR
                 (UTC) (F)     (DEG/KT/KT) (MB)    (FT/S) (FT/S/D)
BUOY 41004       1000   75 73  170/ 12/ 14 1016.5
BUOY 41008       0950   73 73  170/  6/  8 1015.3R   4/ 8   3/110/ 8
FOLLY BEACH CMAN 1000   74     180/ 10/ 12 1016.4R
CAPERS NEARSHORE 1008   73 73  190/ 10/ 16 1016.0R
FRIPP NEARSHORE  0908   73 73  190/ 10/ 14 1015.2R


STATION/POSITION TIME  TEMP    WIND        PRES    WAVE   SWELL
                       AIR SEA DIR/SP/G            HT/PER HT/PER/DIR
                 (UTC) (F)     (DEG/KT/KT) (MB)    (FT/S) (FT/S/D)
5E ST. MARYS GA  1000      74                N/A     3/ 8
FRYING PAN BUOY  1010   75 72  200/ 12/ 14 1017.4
BUOY 41025       0950   77 77  210/ 17/ 21 1017.0R   6/ 6   2/ 40/10
CAPE LOOKOUT NC  1000   73     200/  9/ 12 1017.1R
BUOY 41002       0950   75 75  180/ 12/ 16 1019.2R   4/ 8   3/ 90/ 8
BUOY 41010       1010   77 78  150/ 14/ 16 1017.4
ST AUGUSTINE FL  1000   72 75  210/  3/  4 1016.6R


$$




USA.gov is the U.S. government's official web portal to all federal, state and local government web resources and services.